Cosmos 724 - Orbit

View from above orbital plane
View from above orbital plane
View from above satellite
View from above satellite

Ground track
Ground track

The orbit data is extracted from the following two-line orbital elements,

1 07727U 75025A   13168.19470229 -.00000105  00000-0 -11863-4 0   155
2 07727 065.5894 146.6043 0052437 163.5332 276.9264 13.98823359951800
Epoch (UTC): 17 June 2013 04:40:22
Eccentricity: 0.0052437
inclination: 65.5894°
perigee height: 860 km
apogee height: 936 km
right ascension of ascending node: 146.6043°
argument of perigee: 163.5332°
revolutions per day: 13.98823359
mean anomaly at epoch: 276.9264°
orbit number at epoch: 95180

The dashed part of the orbit path shows where the satellite is in the earth's shadow,  

Developed and maintained by Chris Peat, Heavens-Above GmbH. Please read the updated FAQ before sending e-mail. Imprint. DLR